Погода Нижний Чир

Погода Нижний Чир : погода сейчас, прогноз погоды и архив. Всё, что Вы хотите узнать о погоде Нижний Чир!

Хотите узнать прогноз погоды Нижний Чир? Тогда Вам сюда: Погода Нижний Чир

Поиск расширенной информации на нашем сайте:

Другие новости

Новости СМИ2

Главная страница сайта

Новости сайта

03.07.2017

Напоминаем, что на нашем специализированном сайте Метеоцентр.Азия вы можете получить высокодетализированные автоматические прогнозы погоды по пунктам России, СНГ и мира в авиационном формате (включающие направление и скорость ветра, видимость, явления погоды, количество и форму облачности, нижнюю и верхнюю границу облачности).


Погода Нижний Чир - сегодня

Время (UTC), дата Ветер
(°,м/с) 
Видим.   Явления Облачность Т
(°С)
Тd
(°С)
f(%) Тe
(°С)
Pmin
(гПа)
dP
(гПа)
Po
(мм)
O2
(г/м3)
Тmin Tmax R s Состояние
почвы
15 17.10.17 270 (З) 4{10}  20000 м    9/6 600 м средняя, верхняя 
[Sc|Ac As|Ci sp]
+10.1 +3.9 65 +9  1016.2  0.6  755  293    +12.2       
18 17.10.17 280 (З) 20000 м    10/10 600 м 
[Sc]
+9.6 +6.2 79 +8  1017  0.8  756  293           
21 17.10.17 290 (З) 20000 м    10/10 600 м 
[Sc]
+10 +6.9 81 +8  1017.9  0.9  757  293           
00 18.10.17 290 (З) 20000 м    9/9 360 м 
[Sc]
+8.8 +6.9 88 +7  1020  758  295          мокрый или
старый снег
50-90% 
03 18.10.17 280 (З) 0500 м  туман  ясно 
+7.1 +6.1 93 +6  1021.8  1.8  760  297  +6.9         
06 18.10.17 210 (ЮЗ) 0500 м  туман  ?/?  
+7.2 +6.4 95 +7  1023.9  761  298  +6.5         
09 18.10.17 240 (ЮЗ) н/о  {туман}  10/10 300 м 
[St]
+9.9 +7.9 87 +8  1023.4  -0.4  761  294           
12 18.10.17 250 (З) 10 км  {туман}  10/10 600 м 
[Sc]
+12.2 +8.7 79 +11  1022.2  -1.1  760  292           
15 18.10.17 210 (ЮЗ) 20000 м    10/0 
+11.3 +8.8 85 +11  1021.4  -0.8  759  292    +13       
18 18.10.17 210 (ЮЗ) 5{11}  20000 м    8/0 верхняя 
[Cs]
+10.2 +7.6 84 +9  1021.2  -0.2  759  294           
21 18.10.17 230 (ЮЗ) 7-10{10}  20000 м    10/0 средняя 
[As trans]
+10.3 +7.1 81 +9  1020  -1.1  758  293           
00 19.10.17 250 (З) 5{11}  н/о    н/о 
+9.7 +7.1 84 +8  1019.6  -0.4  758  294           
03 19.10.17 210 (ЮЗ) 4{10}  н/о    н/о 
+8.2 +6.5 89 +7  1019.6  758  295  +8.2         
06 19.10.17 240 (ЮЗ) 7-10{10}  10 км    8/0 верхняя 
[Ci]
+10.7 +7.1 78 +9  1019.4  0.1  758  293  +8         
09 19.10.17 240 (ЮЗ) 7-10{10}  10 км    8/0 верхняя 
[Ci]
+16.2 +10.1 67 +17  1018.5  -0.7  757  286           
12 19.10.17 240 (ЮЗ) 6-10{10}  10 км    8/0 верхняя 
[Ci]
+17.8 +10.7 63 +20  1017.7  -0.8  757  284           
15 19.10.17 240 (ЮЗ) 6{10}  10 км    8/0 верхняя 
[Ci]
+14.4 +10 75 +15  1017.5  -0.3  757  288    +17.9       
18 19.10.17 250 (З) 7{10}  20000 м    3/0 верхняя 
[Ci fib]
+12.6 +9.6 82 +11  1017.6  757  290           
21 19.10.17 200 (Ю) 1{10}  10 км    4/0 верхняя 
[Ci]
+10.9 +8.9 87 +12  1017.8  0.1  757  292           
00 20.10.17 030 (СВ) 4000 м  дымка  8/0 средняя, верхняя 
[Ac lent|Ci]
+9.8 +8.3 90 +11  1017.7  0.1  757  293           
03 20.10.17 300 (СЗ) 4000 м  дымка  10/3 600 м средняя 
[Sc|As trans]
+10.7 +9.2 90 +12  1017.9  0.3  757  292  +9.1         
06 20.10.17 060 (СВ) 4000 м  дымка  10/10 600 м 
[Sc]
+11.7 +10.1 90 +14  1019  1.1  758  291           
09 20.10.17 030 (СВ) 4000 м  дымка  10/10 600 м 
[Sc]
+13.4 +10.5 83 +16  1019.1  0.1  758  289           
12 20.10.17 120 (ЮВ) 4000 м  дымка  9/9 600 м 
[Sc]
+14 +10.3 78 +16  1018.9  -0.2  758  288           
15 20.10.17 360 (С) 10 км    10/10 600 м 
[Sc]
+13.4 +10.1 80 +16  1019.3  0.3  758  289    +14.1       
Время (UTC), дата Ветер
(°,м/с) 
Видим.   Явления Облачность Т
(°С)
Тd
(°С)
f(%) Тe
(°С)
Pmin
(гПа)
dP
(гПа)
Po
(мм)
O2
(г/м3)
Тmin Tmax R s Состояние
почвы

Для получения пояснительной информации подведите курсор к названию столбца.

ПОГОДА Нижний Чир - архив

Всё, что Вы хотите узнать о погоде Нижний Чир - удобно и подробно!

Выберите нужную дату (начиная с 1 января 2015* года) и нажмите кнопку "Найти".
Будут отображены архивные сводки погоды по пункту Нижний Чир, начиная с указанной даты.


Отображать данные в формате CSV (для использования в таблицах Excel)


Внимание! Наш архив погоды предназначен исключительно для личного некоммерческого использования в познавательных целях. Если Вам необходимы официальные справки о состоянии погоды (для производственных, юридических, коммерческих и т.п. целей), обращайтесь в органы Росгидромета.

*Примечание: данная дата относится к архиву по метеостанциям СССР (Россия, СНГ, Балтия).
Архив по метеостанциям Зарубежной Европы и Азии (кроме Китая) хранится 10 дней, по другим регионам земного шара (Китай, Африка, Америка, Австралия, Океания) - 1 день.

Нижний Чир - район местоположения метеостанции


Название, широта, долгота, высота метеостанции:
Нижний Чир 48.3°ш. 43.1°д. 68 м над ур. моря [Российская Федерация]

Дополнительная информация

В oтличие oт бoльшинства пoгoдных сайтoв мы публикуем пoдрoбную метеoинфoрмацию в детальнoм прoфессиoнальнoм фoрмате.

Характеристики температуры и влажнoсти вoздуха измеряются на высoте 2 м в тени вдали oт зданий и деревьев.
Скoрoсть ветра измеряется на высoте 10 м (на урoвне рoста челoвека скoрoсть ветра ниже в 1.5-2 раза). Если метеoстанция нахoдится в гoрoде или в лесу, тo скoрoсть ветра занижена на 2-4 м/с пo сравнению с oткрытым местoм. Скoрoсть ветра над акватoриями крупных рек и oзёр, а также на вершинах хoлмoв на 2-5 м/с выше, чем в oбычных услoвиях.
Атмoсфернoе давление в разных тoчках местнoсти мoжет значительнo oтличаться oт давления на метеoстанции, в зависимoсти oт услoвий рельефа (при пoдъёме на 10 м давление пoнижается примернo на 1 мм рт.ст.).